Regional Weather Roundup
Issued by NWS Tampa Bay Area, FL

Home | Current Version | Previous Version | Text Only | Print | Product List | Glossary On
Versions: 1 2 3 4 5 6 7 8 9 10 11 12 13 14 15 16 17 18 19 20 21 22 23 24 25 26 27
000
NZUS99 KTBW 010417
RWRTPA
FLORIDA REGIONAL WEATHER ROUNDUP
NATIONAL WEATHER SERVICE TAMPA BAY RUSKIN FL
1200 AM EDT SUN AUG 01 2021

NOTE: "FAIR" INDICATES FEW OR NO CLOUDS BELOW 12,000 FEET WITH NO
SIGNIFICANT WEATHER AND/OR OBSTRUCTIONS TO VISIBILITY.



STATION/POSITION



FLZ042-048>051-055-056-060-061-010500-
EXTRA STATIONS

CITY           SKY/WX    TMP DP  RH WIND       PRES   REMARKS
Everglades Cty NOT AVBL
CRYSTAL RIVER  NOT AVBL
SEBRING        FAIR      80  76  88 CALM      30.08S
EGLIN AFB      LGT RAIN  73  71  92 SE6       30.00F
CANAVERAL      PTCLDY    83  74  74 SW8       30.04R HX  90

$$
FLZ001>010-012>015-010500-
PANHANDLE FLORIDA

CITY           SKY/WX    TMP DP  RH WIND       PRES   REMARKS
PENSACOLA      MOCLDY    78  76  93 E10       30.01S
PENSACOLA NAS  TSTM      76  73  91 SE9       30.02F FOG
MILTON NAS     MOCLDY    73  71  93 SE10      30.00
CRESTVIEW      LGT RAIN  75  73  93 W6        30.03F
VALPARAISO     LGT RAIN  75  72  89 SE5       30.00F
PANAMA CITY    FAIR      74  72  93 NW5       30.01F
TYNDALL AFB    PTCLDY    79  71  75 N8        30.02S
APALACHICOLA   PTCLDY    83  81  94 W5        30.01F HX  97

STATION/POSITION


29.2N   88.2W
28.8N   86.0W
28.5N   84.5W

$$
FLZ011-016>039-010500-
NORTH FLORIDA

CITY           SKY/WX    TMP DP  RH WIND       PRES   REMARKS
MARIANNA       CLOUDY    77  72  84 S6        29.98F
TALLAHASSEE    MOCLDY    79  70  74 CALM      30.02S
CROSS CITY     CLEAR     78  77  98 S3        30.03S
GAINESVILLE    CLEAR     81  76  84 SW7       30.06S
MAYPORT NAS    PTCLDY    85  76  74 SW9       30.02R HX  94
JACKSONVILLE   PTCLDY    80  74  81 SW8       30.01S
JAX NAS        PTCLDY    83  75  77 SW8       30.03S HX  90
JAX CRAIG      CLEAR     84  74  71 SW9       30.03R HX  91
ST AUGUSTINE   CLEAR     82  74  76 SW6       30.04S

STATION/POSITION


KEATON BEACH
31.4N   80.9W
ST AUGUSTINE

$$
FLZ040-043>046-052-053-057-058-063-010500-
CENTRAL FLORIDA

CITY           SKY/WX    TMP DP  RH WIND       PRES   REMARKS
OCALA          CLEAR     79  75  87 SW3       30.06R
LEESBURG       CLEAR     82  76  81 SW6       30.06S
SANFORD        CLEAR     83  74  74 W6        30.05R
ORLANDO EXEC   CLEAR     84  74  71 W9        30.06R HX  91
ORLANDO INTL   CLEAR     84  74  71 W8        30.06R HX  91
KISSIMMEE      CLEAR     81  74  79 W6        30.08R
WINTER HAVEN   CLEAR     82  74  76 W7        30.08S
LAKELAND       CLEAR     79  73  83 SW5       30.08S
BARTOW         FAIR      81  75  83 W6        30.08R

$$
FLZ041-047-054-059-064-010500-
EAST CENTRAL FLORIDA

CITY           SKY/WX    TMP DP  RH WIND       PRES   REMARKS
DAYTONA BEACH  CLEAR     81  74  79 SW5       30.04S
JFK SPACE CTR  PTCLDY    82  75  79 SW7       30.04R
PATRICK AFB    PTCLDY    85  78  79 SW13      30.04R HX  95
MELBOURNE      MOCLDY    83  75  77 SW8       30.06R HX  90
VERO BEACH     CLEAR     82  71  69 S6        30.07R
FT PIERCE      CLEAR     81  72  74 S5        30.06S
STUART         CLEAR     82  75  78 S6        30.09R

STATION/POSITION


28.9N   78.5W

$$
FLZ042-048>051-055-056-060-061-010500-
WEST CENTRAL FLORIDA

CITY           SKY/WX    TMP DP  RH WIND       PRES   REMARKS
BROOKSVILLE    PTCLDY    78  75  90 S5        30.07R
TAMPA          PTCLDY    85  77  77 SW7       30.06S HX  95
MACDILL AFB    CLEAR     83  71  66 W3        30.04R
ST PETERSBURG  MOCLDY    84  77  79 W6        30.06R HX  94
ST PET-WHITTED CLEAR     85  77  77 W5        30.05R HX  95
SARASOTA       CLEAR     85  77  77 SW6       30.05R HX  95

STATION/POSITION


CEDAR KEY
28.5N   84.5W
VENICE

$$
FLZ062-065-066-069-070-075>078-010500-
SOUTHWEST FLORIDA AND KEYS

CITY           SKY/WX    TMP DP  RH WIND       PRES   REMARKS
PUNTA GORDA    CLEAR     82  78  88 CALM      30.08S HX  91
FT MYERS       PTCLDY    85  77  77 CALM      30.06S HX  95
SOUTHWEST INTL PTCLDY    82  74  76 E3        30.07S
NAPLES         PTCLDY    86  76  71 CALM      30.07R HX  96
MARATHON       CLEAR     84  76  76 SE7       30.07S HX  93
KEY WEST NAS   CLEAR     86  76  71 SE7       30.07S HX  96
KEY WEST INTL  PTCLDY    85  76  74 SE9       30.08S HX  94

STATION/POSITION


VENICE
26.0N   85.6W
SAND KEY
SOMBRERO KEY
LONG KEY

$$
FLZ067-068-071>074-010500-
SOUTHEAST FLORIDA

CITY           SKY/WX    TMP DP  RH WIND       PRES   REMARKS
W PALM BEACH   CLEAR     84  74  71 S6        30.09S HX  91
POMPANO BEACH  CLEAR     85  73  67 S3        30.09R HX  91
FT LAUDER-EXEC CLEAR     84  75  74 S5        30.08S HX  92
FT LAUDERDALE  PTCLDY    84  75  74 S6        30.08S HX  92
PEMBROKE PINES CLEAR     84  73  69 SE3       30.10S HX  90
OPA LOCKA      PTCLDY    83  74  74 CALM      30.09S
MIAMI          PTCLDY    84  76  76 VRB5      30.09S HX  93
WEST KENDALL   CLEAR     81  75  82 CALM      30.09S
HOMESTEAD      PTCLDY    82  75  80 CALM      30.07F

STATION/POSITION


LAKE WORTH
FOWEY ROCKS
SETTLEMENT POINT

$$



USA.gov is the U.S. government's official web portal to all federal, state and local government web resources and services.